Location: Recife
(8.0585°S, 34.8848°W)
Time: 11:07:01
(UTC-03:00)

SR - Pass Details

Date: 14 April 2026
Orbit: 568 x 852 km, 66.7° (Epoch: 12 May)

Event Time Altitude Azimuth Distance (km) Brightness Sun altitude
Rises 12:51:19 0° 219° (SW) 2,772 ? 61.2°
Reaches altitude 10° 12:53:48 10° 232° (SW) 1,868 ? 60.7°
Maximum altitude 12:57:16 26° 289° (WNW) 1,147 ? 60.0°
Drops below altitude 10° 13:00:47 10° 346° (NNW) 1,893 ? 59.3°
Sets 13:03:20 0° 359° (N) 2,818 ? 58.8°
